Harlingen, TX

7:58 PM CDT on August 22, 2017 (GMT -0500)
Valley International

Weather History for KHRL - October, 2012

Change the Weather History Date:

Wednesday, October 31, 2012

  Actual Average Record
Temperature  
Mean Temperature 77 °F 73 °F  
Max Temperature 91 °F 84 °F 97 °F (1947)
Min Temperature 63 °F 62 °F 33 °F (1993)
Degree Days  
Heating Degree Days 0 0  
Month to date heating degree days 4 0  
Since 1 July heating degree days 4 3  
Cooling Degree Days 12 8  
Month to date cooling degree days 413 347  
Year to date cooling degree days 4527 3776  
Growing Degree Days 28 (Base 50)    
Moisture  
Dew Point 64 °F    
Average Humidity 65    
Maximum Humidity 93    
Minimum Humidity 36    
Precipitation  
Precipitation 0.00 in 0.09 in 2.71 in (1979)
Month to date precipitation 0.52 2.99  
Year to date precipitation 13.24 22.42  
Sea Level Pressure  
Sea Level Pressure 29.96 in    
Wind  
Wind Speed 9 mph (SSE)    
Max Wind Speed 22 mph    
Max Gust Speed 28 mph    
Visibility 10 miles    
Events      
T = Trace of Precipitation, MM = Missing Value Source: NWS Daily Summary

Daily Weather History Graph

Daily Weather History Graph

Search for Another Location

Airport or City:

Trip Planner

Search our weather history database for the weather conditions in past years. The results will help you decide how hot, cold, wet, or windy it might be!

Date:

Astronomy

Oct. 31, 2012 Rise Set
Actual Time 7:39 AM CDT 6:48 PM CDT
Civil Twilight 7:15 AM CDT 7:12 PM CDT
Nautical Twilight 6:48 AM CDT 7:39 PM CDT
Astronomical Twilight 6:21 AM CDT 8:06 PM CDT
Moon 8:11 PM CDT (10/31) 9:11 AM CDT (10/31)
Length of Visible Light 11h 57m
Length of Day
11h 09m
Full, 97% of the Moon is Illuminated
Oct 31
Full
Nov 6
Last Quarter
Nov 13
New
Nov 20
First Quarter
Nov 28
Full

Hourly Weather History & Observations

Time (CDT) Temp. Heat Index Dew Point Humidity Pressure Visibility Wind Dir Wind Speed Gust Speed Precip Events Conditions
12:52 AM 66.0 °F - 61.0 °F 84% 29.98 in 10.0 mi SE 6.9 mph - N/A   Clear
1:52 AM 66.9 °F - 63.0 °F 87% 29.97 in 10.0 mi SE 5.8 mph - N/A   Scattered Clouds
2:52 AM 64.9 °F - 62.1 °F 90% 29.96 in 10.0 mi SE 5.8 mph - N/A   Clear
3:52 AM 64.9 °F - 62.1 °F 90% 29.96 in 10.0 mi ESE 5.8 mph - N/A   Clear
4:52 AM 66.0 °F - 63.0 °F 90% 29.95 in 10.0 mi ESE 5.8 mph - N/A   Mostly Cloudy
5:11 AM 66.2 °F - 62.6 °F 88% 29.95 in 10.0 mi Calm Calm - N/A   Scattered Clouds
5:52 AM 64.9 °F - 62.1 °F 90% 29.95 in 10.0 mi SE 3.5 mph - N/A   Clear
6:52 AM 64.0 °F - 62.1 °F 93% 29.96 in 10.0 mi SE 5.8 mph - N/A   Clear
7:52 AM 64.0 °F - 62.1 °F 93% 29.98 in 10.0 mi ESE 5.8 mph - N/A   Clear
8:52 AM 70.0 °F - 66.9 °F 90% 29.99 in 10.0 mi South 4.6 mph - N/A   Clear
9:52 AM 78.1 °F - 66.0 °F 66% 30.00 in 10.0 mi South 13.8 mph - N/A   Clear
10:52 AM 82.9 °F 84.6 °F 64.9 °F 54% 30.01 in 10.0 mi South 13.8 mph - N/A   Clear
11:52 AM 86.0 °F 87.3 °F 64.0 °F 48% 30.01 in 10.0 mi South 12.7 mph 23.0 mph N/A   Clear
12:52 PM 88.0 °F 88.7 °F 63.0 °F 43% 29.99 in 10.0 mi South 10.4 mph 19.6 mph N/A   Partly Cloudy
1:52 PM 90.0 °F 90.6 °F 63.0 °F 40% 29.95 in 10.0 mi South 12.7 mph - N/A   Partly Cloudy
1:54 PM 89.6 °F 90.1 °F 62.6 °F 40% 29.95 in 10.0 mi South 9.2 mph - N/A   Scattered Clouds
2:52 PM 87.1 °F 87.0 °F 61.0 °F 41% 29.93 in 10.0 mi Variable 6.9 mph - N/A   Scattered Clouds
3:52 PM 91.0 °F 90.5 °F 60.1 °F 35% 29.91 in 10.0 mi South 9.2 mph - N/A   Scattered Clouds
4:52 PM 89.1 °F 88.2 °F 59.0 °F 36% 29.91 in 10.0 mi South 11.5 mph - N/A   Clear
5:52 PM 84.0 °F 84.5 °F 62.1 °F 47% 29.92 in 10.0 mi SE 21.9 mph 25.3 mph N/A   Partly Cloudy
6:52 PM 80.1 °F 82.3 °F 66.9 °F 64% 29.93 in 10.0 mi SE 11.5 mph - N/A   Clear
7:52 PM 78.1 °F - 68.0 °F 71% 29.95 in 10.0 mi SSE 13.8 mph - N/A   Clear
8:52 PM 75.9 °F - 68.0 °F 76% 29.97 in 10.0 mi SSE 8.1 mph - N/A   Clear
9:52 PM 73.9 °F - 66.9 °F 79% 29.99 in 10.0 mi SE 6.9 mph - N/A   Clear
10:52 PM 72.0 °F - 68.0 °F 87% 30.00 in 10.0 mi SE 6.9 mph - N/A   Clear
11:52 PM 70.0 °F - 66.0 °F 87% 30.01 in 10.0 mi SSE 5.8 mph - N/A   Clear